SCP
0 0 0 0 -0 -0 -0 -0 -0 -0 -0 -0 -0 -0 -0 0 0 0 0 -0 0 0 0 0 0 0 0 0 0 0 0 0 0 0 0 0 0 0 0 0 0 0 0 0 0 0 0 0 0 0 0 0 0 0
0 0 0 0 -0 -0 -0 -0 -0 -0 -0 -0 -0 -0 -0 -0 0 0 0 0 0 0 0 0 0 0 0 0 0 0 0 0 0 0 0 0 0 0 0 0 0 0 0 0 0 0 0 0 0 0 0 0 0 0
0 0 0 0 -0 -0 -0 -0 -0 -0 -0 -0 -0 -0 -0 -0 0 0 0 0 0 0 0 0 0 0 0 0 0 0 0 0 0 0 0 0 0 0 0 0 0 0 0 0 0 0 0 0 0 0 0 0 0 0
0 0 0 0 -0 -0 -0 -0 -0 -0 -0 -0 -0 -0 -0 -0 -0 0 0 0 0 0 0 0 0 0 0 0 0 0 0 0 0 0 0 0 0 0 0 0 0 0 0 0 0 0 0 0 0 0 0 0 0 0
0 0 0 0 -0 -0 -0 -0 -0 -0 -0 -0 -0 -0 -0 -0 -0 0 0 0 0 0 0 0 0 0 0 0 0 0 0 0 0 0 0 0 0 0 0 0 0 0 0 0 0 0 0 0 0 0 0 0 0 0
0 0 0 0 -0 -0 -0 -0 -0 -0 -0 -0 -0 -0 -0 -0 -0 0 0 0 0 0 0 0 0 0 0 0 0 0 0 0 0 0 0 0 0 0 0 0 0 0 0 0 0 0 0 0 0 0 0 0 0 0
0 0 0 0 -0 -0 -0 -0 -0 -0 -0 -0 -0 -0 -0 -0 0 0 0 0 0 0 0 0 0 0 0 0 0 0 0 0 0 0 0 0 0 0 0 0 0 0 0 0 0 0 0 0 0 0 0 0 0 0
0 0 0 0 -0 -0 -0 -0 -0 -0 -0 -0 -0 -0 -0 0 0 0 0 0 0 0 0 0 0 -0 -0 0 0 -0 0 0 -0 0 0 0 0 0 0 0 0 0 0 0 0 0 0 0 0 0 0 0 0 0
0 0 0 0 -0 -0 -0 -0 -0 -0 -0 -0 -0 -0 0 0 0 0 0 0 0 0 0 0 0 0 -0 -0 -0 -0 -0 0 -0 0 0 0 0 0 0 0 0 0 0 0 0 0 0 0 0 0 0 0 0 0
0 0 0 0 -0 -0 -0 -0 -0 -0 -0 -0 0 0 0 0 0 0 -0 0 0 0 0 0 0 0 -0 -0 -0 0 0 0 0 0 0 0 0 0 0 0 0 0 0 0 0 0 0 0 0 0 0 0 0 0
0 0 0 0 -0 -0 -0 -0 -0 -0 -0 0 0 0 0 0 0 0 0 0 0 0 0 0 0 0 0 0 0 -0 0 0 0 0 0 0 0 0 0 0 0 0 0 0 0 0 0 0 0 0 0 0 0 0
0 0 0 0 -0 -0 -0 -0 -0 0 0 0 0 0 0 0 0 0 0 0 0 0 0 0 0 0 0 0 0 0 0 0 0 0 0 0 0 0 0 0 0 0 0 0 0 0 0 0 0 0 0 0 0 0
0 0 0 -0 -0 -0 -0 -0 -0 -0 0 0 0 0 0 0 0 0 0 0 0 0 0 0 0 0 0 0 0 0 0 0 0 0 0 0 0 0 0 0 0 0 0 0 0 0 0 0 0 0 0 0 0 0
0 0 0 -0 -0 -0 -0 -0 -0 0 0 0 0 0 0 0 0 0 0 0 0 0 0 0 0 0 0 0 0 0 0 0 0 0 0 0 0 0 0 0 0 0 0 0 0 0 0 0 0 0 0 0 0 0
0 0 -0 0 -0 -0 -0 -0 0 0 0 0 0 0 0 0 -0 0 0 0 0 0 0 0 0 0 0 0 0 0 0 0 0 0 0 0 0 0 0 0 0 0 0 0 0 0 0 0 0 0 0 0 0 0
0 0 0 -0 -0 -0 -0 -0 0 0 0 0 0 0 0 0 0 0 0 0 0 0 0 0 0 0 0 0 0 0 0 0 0 0 0 0 0 0 0 0 0 0 0 0 0 0 0 0 0 0 0 0 0 0
0 0 0 -0 -0 -0 0 0 0 0 0 0 0 0 0 0 0 0 0 0 0 0 0 0 0 0 0 0 0 0 0 0 0 0 0 0 0 0 0 0 0 0 0 0 0 0 0 0 0 0 0 0 0 0
0 0 -0 -0 -0 0 0 0 0 0 0 0 0 0 0 0 0 0 0 0 0 0 0 0 0 0 0 0 0 0 0 0 0 0 0 0 0 0 0 0 0 0 0 0 0 0 0 0 0 0 0 0 0 0
0 0 -0 -0 0 0 0 0 0 0 0 0 0 0 0 0 0 0 0 0 0 0 0 0 0 0 0 0 0 0 0 0 0 0 0 0 0 0 0 0 0 0 0 0 0 0 0 0 0 0 0 0 0 0
0 0 0 0 0 0 0 0 0 0 0 0 0 0 0 0 0 0 0 -0 0 0 0 0 0 0 0 0 0 0 0 0 0 0 0 0 0 0 0 0 0 0 0 0 0 0 0 0 0 0 0 0 0 0
0 0 0 0 0 0 0 0 0 0 0 0 0 0 0 0 0 0 0 0 0 0 0 0 0 0 0 0 0 0 0 0 0 0 0 0 0 0 0 0 0 0 0 0 0 0 0 0 0 0 0 0 0 0
0 0 0 0 0 0 0 0 0 0 0 0 0 0 0 0 0 0 0 0 0 0 0 0 0 0 0 0 0 0 0 0 0 0 0 0 0 0 0 0 0 0 0 0 0 0 0 0 0 0 0 0 0 0
0 0 0 0 0 0 0 0 0 0 0 0 0 0 0 0 0 0 0 0 0 0 0 0 0 0 0 0 0 0 0 0 0 0 0 0 0 0 0 0 0 0 0 0 0 0 0 0 0 0 0 0 0 0
0 0 0 0 0 0 0 0 -0 0 0 0 0 0 0 0 0 0 0 0 0 0 0 0 0 0 0 0 0 0 0 0 0 0 0 0 0 0 0 0 0 0 0 0 0 0 0 0 0 0 0 0 0 0
0 0 0 -0 0 0 0 0 0 0 0 0 0 0 0 0 0 0 0 0 0 0 0 0 0 0 0 0 0 0 0 0 0 0 0 0 0 0 0 0 0 0 0 0 0 0 0 0 0 0 0 0 0 0
0 0 -0 0 0 0 0 0 0 0 0 0 0 0 0 0 0 0 0 0 0 0 0 0 0 0 0 0 0 0 0 0 0 0 0 0 0 0 0 0 0 0 0 0 0 0 0 0 0 0 0 0 0 0
0 -0 -0 0 0 0 0 0 0 0 0 0 0 0 0 0 0 0 0 0 0 0 0 0 0 0 0 0 0 0 0 0 0 0 0 0 0 0 0 0 0 0 0 0 0 0 0 0 0 0 0 0 0 0
0 0 0 0 0 0 0 0 0 0 0 0 0 0 0 0 0 0 0 0 0 0 0 0 0 0 0 0 0 0 0 0 0 0 0 0 0 0 0 0 0 -0 -0 -0 -0 0 0 0 0 0 0 0 0 0
-0 0 0 0 0 0 0 0 0 0 0 0 0 0 0 0 0 0 0 0 0 0 0 0 0 0 0 0 0 0 0 0 0 0 0 0 0 0 -0 0 0 0 0 -0 -0 0 0 0 0 0 0 0 0 0
0 0 0 0 0 0 0 0 0 0 0 0 0 0 0 -0 -0 -0 -0 -0 -0 0 0 0 0 0 0 0 0 0 0 0 0 0 0 0 0 0 -0 -0 -0 -0 0 0 0 0 0 0 0 0 0 0 0 0
0 0 0 0 0 0 0 0 0 0 0 0 0 -0 -0 -0 0 0 0 0 0 0 0 0 0 0 0 0 0 0 0 0 0 0 0 0 0 0 0 0 0 0 0 0 0 0 0 0 0 0 0 0 0 0
0 0 0 0 0 0 0 -0 -0 -0 -0 0 0 0 0 0 0 0 0 0 0 0 0 0 0 0 0 0 0 0 0 0 0 0 0 0 0 0 0 0 0 0 0 0 0 0 0 0 0 0 0 0 0 0
0 0 -0 -0 -0 0 0 0 0 0 0 0 0 0 0 0 0 0 0 0 0 0 0 0 0 0 0 0 0 0 0 0 0 0 0 0 0 0 0 0 0 0 0 0 0 0 0 0 0 0 0 0 0 0
Wind_Speed_500mb
10 19 28 34 40 44 47 46 39 24 21 24 29 27 22 23 18 24 22 22 30 36 41 34 31 19 21 18 8 11 7 7 7 6 2 2 6 3 9 5 4 5 4 5 5 6 5 23 8 11 5 15 24 17
11 19 27 34 39 44 46 45 40 25 18 21 22 22 15 27 18 18 28 25 31 36 39 33 31 23 20 10 12 5 9 7 6 7 3 6 8 7 5 2 9 7 3 8 3 7 11 23 28 21 11 8 12 16
11 19 27 34 39 44 45 44 39 26 15 18 19 16 11 16 24 30 39 37 51 51 37 30 36 27 16 6 3 9 8 8 8 6 10 6 12 5 5 1 6 6 5 8 7 2 19 16 15 9 5 11 12 19
12 20 28 34 40 43 45 44 39 25 12 16 17 14 7 8 12 18 21 14 14 17 10 21 15 23 25 21 12 7 20 14 13 18 14 7 8 10 4 5 7 2 6 8 5 10 8 8 4 5 7 8 20 25
13 21 28 35 40 43 44 43 38 24 7 12 14 16 2 10 17 21 15 14 17 6 10 10 23 18 22 22 23 20 18 25 24 12 13 5 13 14 9 9 7 7 5 6 6 17 8 3 14 2 18 25 23 29
14 22 29 36 40 42 42 43 37 23 5 9 13 12 6 8 15 17 12 24 29 37 10 5 11 11 27 35 36 39 38 36 26 13 11 12 14 11 6 4 12 20 22 21 12 8 4 8 16 14 17 24 28 30
16 23 30 37 40 41 41 42 34 18 5 6 9 11 16 13 4 7 12 16 17 13 12 7 2 3 13 30 32 28 23 32 32 13 12 11 11 13 6 5 27 18 16 13 4 4 7 11 14 21 17 18 18 18
17 23 30 36 39 39 41 39 29 4 5 8 12 13 14 13 15 18 18 13 4 5 8 9 4 0 2 16 16 29 31 23 18 12 11 10 8 8 5 26 28 22 16 2 16 14 13 12 15 16 20 23 27 28
18 24 31 35 38 35 39 32 22 7 12 4 10 9 12 11 8 13 17 12 10 6 4 7 9 6 13 8 11 12 5 5 5 6 7 9 5 2 21 40 27 19 11 7 16 7 10 11 15 17 22 27 31 33
19 25 31 34 35 32 35 24 22 2 1 14 12 7 8 14 6 8 6 3 3 6 7 6 10 3 16 9 8 9 8 4 4 4 11 8 1 15 32 27 23 22 9 9 2 4 15 15 15 18 22 26 30 32
20 26 30 32 31 28 30 20 16 7 14 12 12 11 13 17 9 6 5 7 6 6 9 10 12 13 6 6 6 7 7 7 6 7 8 2 3 18 32 23 26 15 8 5 13 17 14 13 16 22 27 29 36 35
20 26 28 30 26 23 25 15 14 9 14 14 8 13 15 9 6 5 3 4 8 1 6 7 11 7 6 3 4 5 5 3 7 14 8 4 6 39 32 29 21 19 14 16 11 10 10 16 20 23 27 35 31 40
21 25 25 28 21 17 18 11 7 6 11 12 9 7 9 6 17 7 7 9 7 14 11 1 1 2 3 1 4 5 6 1 23 6 5 7 30 40 32 26 30 13 18 18 11 6 11 15 20 26 37 23 29 41
21 22 21 25 15 11 12 12 10 12 11 10 7 12 4 8 6 1 6 5 7 27 26 13 6 3 2 3 3 5 3 9 4 5 8 8 45 40 30 20 28 31 19 10 3 9 14 16 24 27 28 22 32 40
19 16 21 14 13 9 9 9 13 15 9 11 9 4 5 5 9 12 4 11 15 23 23 8 5 3 2 4 4 5 1 1 4 5 6 36 39 34 25 30 25 21 12 2 11 15 14 21 19 26 21 21 31 38
17 13 21 16 12 9 5 9 7 9 6 7 8 8 21 18 21 23 20 18 24 20 14 3 4 5 3 4 3 8 5 3 6 8 28 41 35 28 34 25 18 11 4 10 11 16 16 14 17 23 21 21 29 31
14 18 19 13 10 8 7 10 9 6 6 6 5 14 23 10 10 15 13 14 19 14 7 6 6 3 3 2 5 7 2 6 23 37 41 38 33 30 24 20 13 10 9 10 13 19 8 14 16 19 20 23 30 29
16 14 15 12 9 13 10 13 5 2 2 9 9 8 9 7 6 9 14 11 7 9 7 3 9 6 5 4 0 4 23 32 31 31 32 31 26 21 20 18 16 15 12 13 18 13 12 17 16 18 21 24 38 30
14 10 8 8 9 8 5 7 7 6 8 6 5 2 5 9 8 4 10 12 13 12 11 8 8 5 3 6 25 35 36 29 29 30 26 21 17 23 22 22 20 18 20 21 18 21 19 17 18 20 28 32 40 31
12 9 7 3 10 7 5 5 6 6 4 2 3 4 4 6 5 5 5 11 16 13 4 5 4 10 15 19 15 20 25 23 21 27 25 23 21 19 24 24 28 24 19 20 21 16 14 19 20 26 31 34 36 27
8 6 6 4 8 11 6 7 5 7 7 6 3 5 8 5 10 13 6 10 6 5 6 9 24 19 13 11 11 9 9 18 15 18 9 21 34 26 20 15 20 22 19 20 24 26 20 21 27 30 31 32 30 27
9 6 7 8 8 6 3 3 9 13 6 6 7 6 9 5 1 3 11 7 6 1 13 20 18 9 1 2 5 7 6 9 15 21 17 13 27 27 29 33 35 33 31 33 31 28 32 33 30 29 31 30 27 27
3 3 4 4 3 5 4 5 5 4 3 4 4 5 4 1 3 7 5 7 8 14 14 12 6 1 3 5 11 12 14 21 23 22 24 25 28 33 33 35 37 36 37 37 39 39 41 34 30 31 31 29 28 32
2 1 2 2 4 5 3 5 5 6 5 4 4 3 3 4 2 4 5 6 16 25 16 8 1 4 7 14 19 26 33 33 36 35 32 34 38 38 30 29 41 53 44 35 28 38 40 38 33 30 26 26 29 33
2 3 3 4 6 5 7 6 5 4 6 7 5 4 2 1 2 4 3 6 25 22 14 8 5 7 14 17 14 14 27 39 34 36 47 41 28 35 30 26 20 13 38 49 39 34 40 37 34 31 28 28 33 38
3 2 5 6 6 3 7 3 4 5 4 1 4 4 4 4 3 6 5 14 20 14 10 8 7 1 12 20 27 34 36 31 25 28 12 17 21 25 41 50 51 42 36 25 19 27 26 32 33 33 35 37 39 43
4 6 6 5 7 11 8 9 4 2 4 3 2 3 0 3 2 4 10 9 5 5 7 14 20 27 31 33 33 28 39 39 43 28 25 23 31 46 48 40 41 37 32 36 37 37 36 37 37 39 45 46 42 34
6 8 6 19 13 8 5 8 6 3 5 9 3 4 7 4 2 11 11 14 18 20 23 25 26 27 24 23 34 39 31 41 36 26 32 38 37 33 41 35 38 33 43 48 40 40 40 43 47 47 42 39 37 34
7 12 15 9 16 12 4 4 7 4 8 5 3 4 6 4 20 24 27 34 37 36 33 29 26 33 38 29 19 22 26 18 16 13 14 19 23 24 26 26 30 35 26 22 27 32 31 39 48 52 51 50 48 44
7 4 4 8 7 6 12 23 12 10 6 7 7 16 29 39 40 33 28 22 19 20 25 25 23 29 40 45 41 27 20 24 25 30 29 35 40 36 37 37 30 27 35 44 41 34 35 36 36 41 48 51 52 55
16 16 7 12 16 26 14 24 29 32 32 29 30 33 40 42 39 35 35 39 42 41 43 44 36 24 19 16 19 27 34 30 31 32 38 32 29 33 35 35 29 26 24 20 25 29 32 37 40 41 42 48 55 58
13 10 13 13 29 29 32 36 34 29 30 35 36 37 38 36 38 47 16 12 14 14 17 27 31 31 28 29 35 34 32 35 38 37 33 33 37 37 37 34 32 33 33 32 36 40 39 38 43 44 46 52 59 62
12 20 27 19 13 13 25 32 15 14 18 24 44 47 42 41 8 5 18 25 33 36 34 32 32 33 33 35 32 33 37 35 32 30 24 26 30 27 31 33 33 37 41 40 41 46 50 49 48 48 50 53 56 57
Wind_Direction_500mb
348 352 356 356 354 354 353 359 359 357 359 6 16 23 32 34 86 75 82 116 129 99 73 68 70 84 135 153 148 167 65 22 46 64 86 114 97 106 83 5 63 86 72 23 59 82 186 350 28 82 168 44 23 43
344 349 354 352 353 352 352 357 358 355 355 1 10 22 41 57 109 100 84 96 128 99 96 80 70 67 81 109 143 144 140 146 150 91 65 94 45 49 105 42 5 33 145 143 120 175 143 86 109 105 51 19 352 338
339 348 350 350 351 351 351 355 356 352 350 357 4 16 53 64 93 107 119 124 112 104 81 62 46 38 37 35 134 162 160 150 148 106 133 121 78 101 97 97 96 55 109 109 87 138 145 140 129 99 29 5 6 355
338 346 348 349 349 349 349 353 355 349 340 355 359 4 47 115 97 120 145 149 127 110 95 53 44 50 42 48 49 161 156 138 117 104 80 83 102 60 68 123 98 287 72 128 94 164 141 204 182 117 136 3 338 333
338 343 348 347 348 348 347 351 351 348 323 352 1 3 22 129 131 96 94 121 162 83 129 107 53 68 51 38 67 95 98 129 122 75 70 93 116 93 72 71 9 12 164 133 194 146 166 353 127 230 344 320 313 322
337 343 347 345 347 347 347 349 349 347 282 341 1 6 57 165 157 135 85 97 125 113 102 46 50 50 71 78 83 95 93 96 100 81 82 87 130 103 98 115 153 107 100 108 125 183 76 167 19 330 311 333 340 330
338 345 346 345 346 347 347 347 349 346 228 356 39 91 84 80 110 116 107 126 156 115 104 96 79 118 69 80 79 73 64 91 94 75 57 86 74 87 93 147 158 138 136 128 115 183 107 53 6 16 62 51 35 15
341 346 346 345 348 349 348 349 351 4 153 107 94 81 81 90 102 102 110 134 132 118 149 108 280 200 183 120 107 107 109 85 84 91 101 98 78 79 78 144 145 135 140 154 41 127 89 45 12 45 16 5 360 5
342 345 345 347 350 351 351 355 6 160 164 122 68 60 85 76 91 101 108 94 62 26 111 117 138 216 195 195 124 139 130 65 110 91 80 89 9 88 170 149 143 156 132 78 86 55 22 57 49 28 8 2 359 1
342 342 345 349 353 354 357 8 20 50 47 343 25 53 74 27 67 113 87 92 46 14 26 114 163 180 179 174 160 153 179 147 83 249 111 75 185 133 157 164 152 144 161 141 77 353 99 61 34 18 11 0 356 351
339 341 346 350 355 359 4 21 43 71 18 31 22 31 23 15 46 57 35 26 355 42 35 39 134 132 113 129 187 202 166 169 139 217 108 121 191 181 164 164 154 163 163 193 138 103 77 47 23 359 352 351 348 349
336 342 347 351 358 2 7 22 43 41 33 19 17 12 10 14 8 48 324 3 53 197 34 45 38 73 96 101 155 186 164 102 178 148 91 171 247 178 177 171 184 175 170 136 118 85 38 5 354 351 348 345 350 347
338 343 348 355 1 3 10 21 21 25 356 23 27 11 3 351 37 35 26 342 17 8 358 172 339 47 78 70 87 74 66 254 135 66 154 221 169 174 175 179 169 165 164 144 114 50 356 346 338 342 339 342 345 354
337 342 352 357 1 10 21 47 37 28 29 10 357 349 70 357 39 50 161 192 33 12 9 1 232 65 55 75 86 83 222 124 211 119 219 200 176 177 176 199 191 153 156 147 86 342 339 333 336 342 341 338 342 351
336 347 357 3 13 23 53 67 60 69 45 21 5 2 27 78 58 13 97 71 19 359 2 3 348 214 8 83 47 74 267 117 59 204 225 174 174 177 180 163 161 162 161 138 331 328 325 327 343 344 343 330 339 349
349 359 7 14 16 32 93 78 102 55 34 17 22 21 12 64 51 53 50 35 7 341 348 320 349 48 312 158 152 220 126 186 208 186 164 167 170 178 169 175 171 174 253 310 310 317 317 319 323 340 337 322 338 349
354 355 6 14 29 59 88 102 76 46 13 341 58 49 50 59 73 67 32 358 346 4 341 345 43 238 305 360 49 25 164 192 150 152 160 171 176 173 183 193 205 248 233 247 306 325 299 288 310 324 320 325 341 346
351 357 2 13 37 67 91 34 35 355 342 37 85 63 33 18 56 19 345 347 38 17 9 337 312 19 23 59 234 201 134 146 153 158 170 182 188 197 203 208 188 195 217 275 303 302 290 285 303 306 323 329 340 349
357 0 5 23 30 26 45 15 9 10 35 49 32 74 30 73 56 332 338 29 18 359 337 357 49 39 343 8 159 157 159 166 169 174 181 193 213 212 214 211 213 226 253 262 280 290 292 283 284 313 330 330 341 348
350 355 3 54 20 19 30 357 346 349 322 264 296 23 120 194 316 326 358 349 337 333 321 70 114 126 112 92 121 173 196 189 173 187 199 210 210 211 232 251 250 239 241 261 271 262 257 245 287 313 321 326 338 342
3 31 56 82 53 26 354 351 346 353 331 349 82 305 285 287 274 281 253 336 307 269 74 127 142 139 139 138 150 156 151 178 180 196 247 224 215 222 216 241 233 225 236 245 255 249 253 265 292 309 313 321 329 333
24 61 106 65 23 329 293 341 310 317 299 319 301 279 264 276 107 57 317 261 261 183 155 164 171 168 127 335 251 233 200 251 273 279 276 230 215 227 236 240 238 245 250 250 244 251 260 274 290 304 320 318 316 318
28 57 47 25 309 325 327 340 313 287 282 251 286 304 257 21 98 340 292 269 190 193 172 149 125 169 259 343 329 313 278 263 261 272 263 256 263 270 267 264 261 255 253 253 260 259 257 270 279 292 307 307 307 317
356 20 12 324 291 281 268 263 256 284 284 289 245 228 150 134 246 257 244 244 187 172 177 182 274 340 265 294 303 317 308 287 273 268 267 258 268 274 287 302 307 266 263 259 263 257 252 266 269 279 289 297 308 310
13 44 353 292 248 278 238 201 239 258 244 215 7 325 105 97 28 283 288 349 183 191 195 203 231 258 276 309 348 15 8 8 359 294 270 283 275 281 266 263 277 268 316 262 261 265 264 257 256 267 275 291 311 311
53 239 218 318 318 256 331 310 217 265 288 229 259 181 141 72 345 283 56 79 99 127 148 173 172 26 332 336 333 332 336 335 323 323 286 278 286 277 273 275 277 263 284 298 286 260 258 249 254 268 280 292 308 311
318 252 256 284 294 309 308 299 297 356 304 253 300 12 119 221 255 66 99 78 71 37 342 330 327 327 324 322 319 319 325 320 317 314 298 298 294 312 300 281 275 277 285 289 286 285 278 283 287 290 297 300 305 307
299 329 329 340 341 325 344 322 307 298 353 1 22 32 355 39 154 25 5 345 332 325 318 317 314 311 306 306 310 319 313 310 321 317 291 289 297 311 328 318 265 270 286 280 273 282 278 274 276 279 281 285 290 298
278 291 322 330 314 285 261 255 325 53 27 29 22 321 329 332 324 320 313 315 312 305 301 301 303 307 309 315 311 316 320 332 339 342 330 326 323 325 331 308 302 297 283 286 285 287 281 278 279 278 278 279 280 288
300 328 22 331 324 309 343 350 356 353 329 318 293 291 301 309 312 311 309 312 309 305 313 311 303 300 296 298 307 302 281 296 302 306 320 322 315 308 308 305 293 293 285 276 280 289 286 290 293 288 279 279 289 295
318 316 290 286 290 304 324 332 325 322 317 310 306 300 298 301 303 310 307 305 302 298 295 297 300 304 304 293 291 298 300 302 296 298 305 319 320 316 319 319 312 306 287 272 268 273 283 291 292 292 294 292 294 296
290 314 324 308 308 302 304 306 300 293 293 296 297 302 301 295 292 302 320 337 337 334 311 309 321 321 317 311 310 310 303 297 295 298 297 298 298 299 295 294 299 299 299 299 300 302 306 314 311 308 310 311 309 304
318 327 317 319 338 356 339 344 321 299 301 305 305 301 294 304 304 305 317 332 316 299 296 292 295 289 283 281 286 306 307 299 288 281 284 299 308 302 292 287 287 287 290 288 284 283 284 286 295 305 309 310 309 308
Wind_Speed_850mb
10 19 28 34 40 44 47 46 39 24 21 24 29 27 22 23 18 24 22 22 30 36 41 34 31 19 21 18 8 11 7 7 7 6 2 2 6 3 9 5 4 5 4 5 5 6 5 23 8 11 5 15 24 17
11 19 27 34 39 44 46 45 40 25 18 21 22 22 15 27 18 18 28 25 31 36 39 33 31 23 20 10 12 5 9 7 6 7 3 6 8 7 5 2 9 7 3 8 3 7 11 23 28 21 11 8 12 16
11 19 27 34 39 44 45 44 39 26 15 18 19 16 11 16 24 30 39 37 51 51 37 30 36 27 16 6 3 9 8 8 8 6 10 6 12 5 5 1 6 6 5 8 7 2 19 16 15 9 5 11 12 19
12 20 28 34 40 43 45 44 39 25 12 16 17 14 7 8 12 18 21 14 14 17 10 21 15 23 25 21 12 7 20 14 13 18 14 7 8 10 4 5 7 2 6 8 5 10 8 8 4 5 7 8 20 25
13 21 28 35 40 43 44 43 38 24 7 12 14 16 2 10 17 21 15 14 17 6 10 10 23 18 22 22 23 20 18 25 24 12 13 5 13 14 9 9 7 7 5 6 6 17 8 3 14 2 18 25 23 29
14 22 29 36 40 42 42 43 37 23 5 9 13 12 6 8 15 17 12 24 29 37 10 5 11 11 27 35 36 39 38 36 26 13 11 12 14 11 6 4 12 20 22 21 12 8 4 8 16 14 17 24 28 30
16 23 30 37 40 41 41 42 34 18 5 6 9 11 16 13 4 7 12 16 17 13 12 7 2 3 13 30 32 28 23 32 32 13 12 11 11 13 6 5 27 18 16 13 4 4 7 11 14 21 17 18 18 18
17 23 30 36 39 39 41 39 29 4 5 8 12 13 14 13 15 18 18 13 4 5 8 9 4 0 2 16 16 29 31 23 18 12 11 10 8 8 5 26 28 22 16 2 16 14 13 12 15 16 20 23 27 28
18 24 31 35 38 35 39 32 22 7 12 4 10 9 12 11 8 13 17 12 10 6 4 7 9 6 13 8 11 12 5 5 5 6 7 9 5 2 21 40 27 19 11 7 16 7 10 11 15 17 22 27 31 33
19 25 31 34 35 32 35 24 22 2 1 14 12 7 8 14 6 8 6 3 3 6 7 6 10 3 16 9 8 9 8 4 4 4 11 8 1 15 32 27 23 22 9 9 2 4 15 15 15 18 22 26 30 32
20 26 30 32 31 28 30 20 16 7 14 12 12 11 13 17 9 6 5 7 6 6 9 10 12 13 6 6 6 7 7 7 6 7 8 2 3 18 32 23 26 15 8 5 13 17 14 13 16 22 27 29 36 35
20 26 28 30 26 23 25 15 14 9 14 14 8 13 15 9 6 5 3 4 8 1 6 7 11 7 6 3 4 5 5 3 7 14 8 4 6 39 32 29 21 19 14 16 11 10 10 16 20 23 27 35 31 40
21 25 25 28 21 17 18 11 7 6 11 12 9 7 9 6 17 7 7 9 7 14 11 1 1 2 3 1 4 5 6 1 23 6 5 7 30 40 32 26 30 13 18 18 11 6 11 15 20 26 37 23 29 41
21 22 21 25 15 11 12 12 10 12 11 10 7 12 4 8 6 1 6 5 7 27 26 13 6 3 2 3 3 5 3 9 4 5 8 8 45 40 30 20 28 31 19 10 3 9 14 16 24 27 28 22 32 40
19 16 21 14 13 9 9 9 13 15 9 11 9 4 5 5 9 12 4 11 15 23 23 8 5 3 2 4 4 5 1 1 4 5 6 36 39 34 25 30 25 21 12 2 11 15 14 21 19 26 21 21 31 38
17 13 21 16 12 9 5 9 7 9 6 7 8 8 21 18 21 23 20 18 24 20 14 3 4 5 3 4 3 8 5 3 6 8 28 41 35 28 34 25 18 11 4 10 11 16 16 14 17 23 21 21 29 31
14 18 19 13 10 8 7 10 9 6 6 6 5 14 23 10 10 15 13 14 19 14 7 6 6 3 3 2 5 7 2 6 23 37 41 38 33 30 24 20 13 10 9 10 13 19 8 14 16 19 20 23 30 29
16 14 15 12 9 13 10 13 5 2 2 9 9 8 9 7 6 9 14 11 7 9 7 3 9 6 5 4 0 4 23 32 31 31 32 31 26 21 20 18 16 15 12 13 18 13 12 17 16 18 21 24 38 30
14 10 8 8 9 8 5 7 7 6 8 6 5 2 5 9 8 4 10 12 13 12 11 8 8 5 3 6 25 35 36 29 29 30 26 21 17 23 22 22 20 18 20 21 18 21 19 17 18 20 28 32 40 31
12 9 7 3 10 7 5 5 6 6 4 2 3 4 4 6 5 5 5 11 16 13 4 5 4 10 15 19 15 20 25 23 21 27 25 23 21 19 24 24 28 24 19 20 21 16 14 19 20 26 31 34 36 27
8 6 6 4 8 11 6 7 5 7 7 6 3 5 8 5 10 13 6 10 6 5 6 9 24 19 13 11 11 9 9 18 15 18 9 21 34 26 20 15 20 22 19 20 24 26 20 21 27 30 31 32 30 27
9 6 7 8 8 6 3 3 9 13 6 6 7 6 9 5 1 3 11 7 6 1 13 20 18 9 1 2 5 7 6 9 15 21 17 13 27 27 29 33 35 33 31 33 31 28 32 33 30 29 31 30 27 27
3 3 4 4 3 5 4 5 5 4 3 4 4 5 4 1 3 7 5 7 8 14 14 12 6 1 3 5 11 12 14 21 23 22 24 25 28 33 33 35 37 36 37 37 39 39 41 34 30 31 31 29 28 32
2 1 2 2 4 5 3 5 5 6 5 4 4 3 3 4 2 4 5 6 16 25 16 8 1 4 7 14 19 26 33 33 36 35 32 34 38 38 30 29 41 53 44 35 28 38 40 38 33 30 26 26 29 33
2 3 3 4 6 5 7 6 5 4 6 7 5 4 2 1 2 4 3 6 25 22 14 8 5 7 14 17 14 14 27 39 34 36 47 41 28 35 30 26 20 13 38 49 39 34 40 37 34 31 28 28 33 38
3 2 5 6 6 3 7 3 4 5 4 1 4 4 4 4 3 6 5 14 20 14 10 8 7 1 12 20 27 34 36 31 25 28 12 17 21 25 41 50 51 42 36 25 19 27 26 32 33 33 35 37 39 43
4 6 6 5 7 11 8 9 4 2 4 3 2 3 0 3 2 4 10 9 5 5 7 14 20 27 31 33 33 28 39 39 43 28 25 23 31 46 48 40 41 37 32 36 37 37 36 37 37 39 45 46 42 34
6 8 6 19 13 8 5 8 6 3 5 9 3 4 7 4 2 11 11 14 18 20 23 25 26 27 24 23 34 39 31 41 36 26 32 38 37 33 41 35 38 33 43 48 40 40 40 43 47 47 42 39 37 34
7 12 15 9 16 12 4 4 7 4 8 5 3 4 6 4 20 24 27 34 37 36 33 29 26 33 38 29 19 22 26 18 16 13 14 19 23 24 26 26 30 35 26 22 27 32 31 39 48 52 51 50 48 44
7 4 4 8 7 6 12 23 12 10 6 7 7 16 29 39 40 33 28 22 19 20 25 25 23 29 40 45 41 27 20 24 25 30 29 35 40 36 37 37 30 27 35 44 41 34 35 36 36 41 48 51 52 55
16 16 7 12 16 26 14 24 29 32 32 29 30 33 40 42 39 35 35 39 42 41 43 44 36 24 19 16 19 27 34 30 31 32 38 32 29 33 35 35 29 26 24 20 25 29 32 37 40 41 42 48 55 58
13 10 13 13 29 29 32 36 34 29 30 35 36 37 38 36 38 47 16 12 14 14 17 27 31 31 28 29 35 34 32 35 38 37 33 33 37 37 37 34 32 33 33 32 36 40 39 38 43 44 46 52 59 62
12 20 27 19 13 13 25 32 15 14 18 24 44 47 42 41 8 5 18 25 33 36 34 32 32 33 33 35 32 33 37 35 32 30 24 26 30 27 31 33 33 37 41 40 41 46 50 49 48 48 50 53 56 57
Wind_Direction_850mb
348 352 356 356 354 354 353 359 359 357 359 6 16 23 32 34 86 75 82 116 129 99 73 68 70 84 135 153 148 167 65 22 46 64 86 114 97 106 83 5 63 86 72 23 59 82 186 350 28 82 168 44 23 43
344 349 354 352 353 352 352 357 358 355 355 1 10 22 41 57 109 100 84 96 128 99 96 80 70 67 81 109 143 144 140 146 150 91 65 94 45 49 105 42 5 33 145 143 120 175 143 86 109 105 51 19 352 338
339 348 350 350 351 351 351 355 356 352 350 357 4 16 53 64 93 107 119 124 112 104 81 62 46 38 37 35 134 162 160 150 148 106 133 121 78 101 97 97 96 55 109 109 87 138 145 140 129 99 29 5 6 355
338 346 348 349 349 349 349 353 355 349 340 355 359 4 47 115 97 120 145 149 127 110 95 53 44 50 42 48 49 161 156 138 117 104 80 83 102 60 68 123 98 287 72 128 94 164 141 204 182 117 136 3 338 333
338 343 348 347 348 348 347 351 351 348 323 352 1 3 22 129 131 96 94 121 162 83 129 107 53 68 51 38 67 95 98 129 122 75 70 93 116 93 72 71 9 12 164 133 194 146 166 353 127 230 344 320 313 322
337 343 347 345 347 347 347 349 349 347 282 341 1 6 57 165 157 135 85 97 125 113 102 46 50 50 71 78 83 95 93 96 100 81 82 87 130 103 98 115 153 107 100 108 125 183 76 167 19 330 311 333 340 330
338 345 346 345 346 347 347 347 349 346 228 356 39 91 84 80 110 116 107 126 156 115 104 96 79 118 69 80 79 73 64 91 94 75 57 86 74 87 93 147 158 138 136 128 115 183 107 53 6 16 62 51 35 15
341 346 346 345 348 349 348 349 351 4 153 107 94 81 81 90 102 102 110 134 132 118 149 108 280 200 183 120 107 107 109 85 84 91 101 98 78 79 78 144 145 135 140 154 41 127 89 45 12 45 16 5 360 5
342 345 345 347 350 351 351 355 6 160 164 122 68 60 85 76 91 101 108 94 62 26 111 117 138 216 195 195 124 139 130 65 110 91 80 89 9 88 170 149 143 156 132 78 86 55 22 57 49 28 8 2 359 1
342 342 345 349 353 354 357 8 20 50 47 343 25 53 74 27 67 113 87 92 46 14 26 114 163 180 179 174 160 153 179 147 83 249 111 75 185 133 157 164 152 144 161 141 77 353 99 61 34 18 11 0 356 351
339 341 346 350 355 359 4 21 43 71 18 31 22 31 23 15 46 57 35 26 355 42 35 39 134 132 113 129 187 202 166 169 139 217 108 121 191 181 164 164 154 163 163 193 138 103 77 47 23 359 352 351 348 349
336 342 347 351 358 2 7 22 43 41 33 19 17 12 10 14 8 48 324 3 53 197 34 45 38 73 96 101 155 186 164 102 178 148 91 171 247 178 177 171 184 175 170 136 118 85 38 5 354 351 348 345 350 347
338 343 348 355 1 3 10 21 21 25 356 23 27 11 3 351 37 35 26 342 17 8 358 172 339 47 78 70 87 74 66 254 135 66 154 221 169 174 175 179 169 165 164 144 114 50 356 346 338 342 339 342 345 354
337 342 352 357 1 10 21 47 37 28 29 10 357 349 70 357 39 50 161 192 33 12 9 1 232 65 55 75 86 83 222 124 211 119 219 200 176 177 176 199 191 153 156 147 86 342 339 333 336 342 341 338 342 351
336 347 357 3 13 23 53 67 60 69 45 21 5 2 27 78 58 13 97 71 19 359 2 3 348 214 8 83 47 74 267 117 59 204 225 174 174 177 180 163 161 162 161 138 331 328 325 327 343 344 343 330 339 349
349 359 7 14 16 32 93 78 102 55 34 17 22 21 12 64 51 53 50 35 7 341 348 320 349 48 312 158 152 220 126 186 208 186 164 167 170 178 169 175 171 174 253 310 310 317 317 319 323 340 337 322 338 349
354 355 6 14 29 59 88 102 76 46 13 341 58 49 50 59 73 67 32 358 346 4 341 345 43 238 305 360 49 25 164 192 150 152 160 171 176 173 183 193 205 248 233 247 306 325 299 288 310 324 320 325 341 346
351 357 2 13 37 67 91 34 35 355 342 37 85 63 33 18 56 19 345 347 38 17 9 337 312 19 23 59 234 201 134 146 153 158 170 182 188 197 203 208 188 195 217 275 303 302 290 285 303 306 323 329 340 349
357 0 5 23 30 26 45 15 9 10 35 49 32 74 30 73 56 332 338 29 18 359 337 357 49 39 343 8 159 157 159 166 169 174 181 193 213 212 214 211 213 226 253 262 280 290 292 283 284 313 330 330 341 348
350 355 3 54 20 19 30 357 346 349 322 264 296 23 120 194 316 326 358 349 337 333 321 70 114 126 112 92 121 173 196 189 173 187 199 210 210 211 232 251 250 239 241 261 271 262 257 245 287 313 321 326 338 342
3 31 56 82 53 26 354 351 346 353 331 349 82 305 285 287 274 281 253 336 307 269 74 127 142 139 139 138 150 156 151 178 180 196 247 224 215 222 216 241 233 225 236 245 255 249 253 265 292 309 313 321 329 333
24 61 106 65 23 329 293 341 310 317 299 319 301 279 264 276 107 57 317 261 261 183 155 164 171 168 127 335 251 233 200 251 273 279 276 230 215 227 236 240 238 245 250 250 244 251 260 274 290 304 320 318 316 318
28 57 47 25 309 325 327 340 313 287 282 251 286 304 257 21 98 340 292 269 190 193 172 149 125 169 259 343 329 313 278 263 261 272 263 256 263 270 267 264 261 255 253 253 260 259 257 270 279 292 307 307 307 317
356 20 12 324 291 281 268 263 256 284 284 289 245 228 150 134 246 257 244 244 187 172 177 182 274 340 265 294 303 317 308 287 273 268 267 258 268 274 287 302 307 266 263 259 263 257 252 266 269 279 289 297 308 310
13 44 353 292 248 278 238 201 239 258 244 215 7 325 105 97 28 283 288 349 183 191 195 203 231 258 276 309 348 15 8 8 359 294 270 283 275 281 266 263 277 268 316 262 261 265 264 257 256 267 275 291 311 311
53 239 218 318 318 256 331 310 217 265 288 229 259 181 141 72 345 283 56 79 99 127 148 173 172 26 332 336 333 332 336 335 323 323 286 278 286 277 273 275 277 263 284 298 286 260 258 249 254 268 280 292 308 311
318 252 256 284 294 309 308 299 297 356 304 253 300 12 119 221 255 66 99 78 71 37 342 330 327 327 324 322 319 319 325 320 317 314 298 298 294 312 300 281 275 277 285 289 286 285 278 283 287 290 297 300 305 307
299 329 329 340 341 325 344 322 307 298 353 1 22 32 355 39 154 25 5 345 332 325 318 317 314 311 306 306 310 319 313 310 321 317 291 289 297 311 328 318 265 270 286 280 273 282 278 274 276 279 281 285 290 298
278 291 322 330 314 285 261 255 325 53 27 29 22 321 329 332 324 320 313 315 312 305 301 301 303 307 309 315 311 316 320 332 339 342 330 326 323 325 331 308 302 297 283 286 285 287 281 278 279 278 278 279 280 288
300 328 22 331 324 309 343 350 356 353 329 318 293 291 301 309 312 311 309 312 309 305 313 311 303 300 296 298 307 302 281 296 302 306 320 322 315 308 308 305 293 293 285 276 280 289 286 290 293 288 279 279 289 295
318 316 290 286 290 304 324 332 325 322 317 310 306 300 298 301 303 310 307 305 302 298 295 297 300 304 304 293 291 298 300 302 296 298 305 319 320 316 319 319 312 306 287 272 268 273 283 291 292 292 294 292 294 296
290 314 324 308 308 302 304 306 300 293 293 296 297 302 301 295 292 302 320 337 337 334 311 309 321 321 317 311 310 310 303 297 295 298 297 298 298 299 295 294 299 299 299 299 300 302 306 314 311 308 310 311 309 304
318 327 317 319 338 356 339 344 321 299 301 305 305 301 294 304 304 305 317 332 316 299 296 292 295 289 283 281 286 306 307 299 288 281 284 299 308 302 292 287 287 287 290 288 284 283 284 286 295 305 309 310 309 308